TimeEST,TemperatureF,Dew PointF,Humidity,Sea Level PressureIn,VisibilityMPH,Wind Direction,Wind SpeedMPH,Gust SpeedMPH,PrecipitationIn,Events,Conditions,WindDirDegrees,DateUTC
12:53 AM,37.0,33.1,86,30.52,5.0,SSE,4.6,-,N/A,,Clear,160,2012-11-17 05:53:00
1:53 AM,36.0,33.1,89,30.53,5.0,SE,3.5,-,N/A,,Clear,140,2012-11-17 06:53:00
2:53 AM,35.1,32.0,89,30.54,5.0,SE,3.5,-,N/A,,Clear,140,2012-11-17 07:53:00
3:53 AM,35.1,30.9,85,30.54,6.0,SE,4.6,-,N/A,,Clear,140,2012-11-17 08:53:00
4:53 AM,34.0,30.0,85,30.56,5.0,SE,3.5,-,N/A,,Clear,140,2012-11-17 09:53:00
5:53 AM,34.0,28.9,82,30.57,6.0,SSE,3.5,-,N/A,,Haze,150,2012-11-17 10:53:00
6:53 AM,34.0,28.9,82,30.58,7.0,Calm,Calm,-,N/A,,Clear,0,2012-11-17 11:53:00
7:53 AM,35.1,30.9,85,30.61,6.0,SSE,3.5,-,N/A,,Clear,160,2012-11-17 12:53:00
8:53 AM,39.0,32.0,76,30.62,6.0,Calm,Calm,-,N/A,,Haze,0,2012-11-17 13:53:00
9:53 AM,42.1,34.0,73,30.63,6.0,Calm,Calm,-,N/A,,Haze,0,2012-11-17 14:53:00
10:53 AM,45.0,35.1,68,30.63,8.0,Calm,Calm,-,N/A,,Clear,0,2012-11-17 15:53:00
11:53 AM,48.0,37.9,68,30.61,7.0,NNW,5.8,-,N/A,,Clear,330,2012-11-17 16:53:00
12:53 PM,48.9,37.0,64,30.59,8.0,North,4.6,-,N/A,,Clear,10,2012-11-17 17:53:00
1:53 PM,50.0,39.0,66,30.58,8.0,NNE,4.6,-,N/A,,Clear,20,2012-11-17 18:53:00
2:53 PM,51.1,39.9,66,30.57,7.0,NNE,5.8,-,N/A,,Clear,20,2012-11-17 19:53:00
3:53 PM,48.9,41.0,74,30.57,6.0,NE,6.9,-,N/A,,Haze,40,2012-11-17 20:53:00
4:53 PM,46.0,41.0,83,30.57,6.0,NE,9.2,-,N/A,,Haze,50,2012-11-17 21:53:00
5:53 PM,45.0,42.1,90,30.57,6.0,NE,8.1,-,N/A,,Clear,50,2012-11-17 22:53:00
6:53 PM,44.1,37.9,79,30.56,5.0,ENE,3.5,-,N/A,,Haze,60,2012-11-17 23:53:00
7:53 PM,44.1,37.0,76,30.57,5.0,East,3.5,-,N/A,,Haze,100,2012-11-18 00:53:00
8:53 PM,41.0,36.0,82,30.57,6.0,NE,6.9,-,N/A,,Haze,40,2012-11-18 01:53:00
9:53 PM,41.0,35.1,79,30.57,6.0,ENE,4.6,-,N/A,,Haze,60,2012-11-18 02:53:00
10:53 PM,39.0,34.0,82,30.56,6.0,ENE,4.6,-,N/A,,Haze,60,2012-11-18 03:53:00
11:53 PM,41.0,34.0,76,30.55,6.0,Calm,Calm,-,N/A,,Haze,0,2012-11-18 04:53:00